Location: *
(57.8420°S, 159.8600°W)
Time: 11:34:41
(UTC+00:00)

Cosmos 1697 Rocket - Pass Details

Date: 18 May 2021
Orbit: 832 x 844 km, 71.0° (Epoch: 22 June)

Event Time Altitude Azimuth Distance (km) Brightness Sun altitude
Rises 03:08:51 0° 272° (W) 3,428 7.2 -5.6°
Reaches altitude 10° 03:11:41 10° 260° (W) 2,496 6.0 -5.9°
Maximum altitude 03:16:33 28° 202° (SSW) 1,578 4.1 -6.5°
Drops below altitude 10° 03:21:26 10° 144° (SE) 2,500 4.6 -7.1°
Enters shadow 03:22:27 - 138° (SE) 2,820 4.8 -7.2°
